owner,sensor,date,latitude,longitude,vertical_datum,sea_water_temperature,qcFlag
Shell,ioos:station:wmo:42877:1,2022-01-04T14:54:00Z,27.3172,-90.1100,10.1,24.2,11111222
Shell,ioos:station:wmo:42877:1,2022-01-04T15:04:00Z,27.3172,-90.1100,10.0,24.2,11111222
Shell,ioos:station:wmo:42877:1,2022-01-04T15:14:00Z,27.3172,-90.1100,10.0,24.2,11111222
Shell,ioos:station:wmo:42877:1,2022-01-04T15:24:00Z,27.3172,-90.1100,10.0,24.2,11111222
Shell,ioos:station:wmo:42877:1,2022-01-04T15:34:00Z,27.3172,-90.1100,10.0,24.2,11111222
Shell,ioos:station:wmo:42877:1,2022-01-04T15:44:00Z,27.3172,-90.1100,9.9,24.2,11111222
Shell,ioos:station:wmo:42877:1,2022-01-04T15:54:00Z,27.3172,-90.1100,9.9,24.2,11111222
Shell,ioos:station:wmo:42877:1,2022-01-04T16:04:00Z,27.3172,-90.1100,9.9,24.2,11111222
Shell,ioos:station:wmo:42877:1,2022-01-04T16:14:00Z,27.3172,-90.1100,9.9,24.2,11111222
Shell,ioos:station:wmo:42877:1,2022-01-04T16:24:00Z,27.3172,-90.1100,9.9,24.2,11111222
Shell,ioos:station:wmo:42877:1,2022-01-04T16:34:00Z,27.3172,-90.1100,9.9,24.2,11111222
Shell,ioos:station:wmo:42877:1,2022-01-04T16:44:00Z,27.3172,-90.1100,9.8,24.2,11111222
Shell,ioos:station:wmo:42877:1,2022-01-04T16:54:00Z,27.3172,-90.1100,9.8,24.2,11111222
Shell,ioos:station:wmo:42877:1,2022-01-04T17:04:00Z,27.3172,-90.1100,9.9,24.2,11111222
Shell,ioos:station:wmo:42877:1,2022-01-04T17:14:00Z,27.3172,-90.1100,9.9,24.2,11111222
Shell,ioos:station:wmo:42877:1,2022-01-04T17:24:00Z,27.3172,-90.1100,9.8,24.2,11111222
Shell,ioos:station:wmo:42877:1,2022-01-04T17:34:00Z,27.3172,-90.1100,9.8,24.2,11111222
Shell,ioos:station:wmo:42877:1,2022-01-04T17:44:00Z,27.3172,-90.1100,9.8,24.2,11111222
Shell,ioos:station:wmo:42877:1,2022-01-04T17:54:00Z,27.3172,-90.1100,9.8,24.2,11111222
Shell,ioos:station:wmo:42877:1,2022-01-04T18:04:00Z,27.3172,-90.1100,9.8,24.2,11111222
Shell,ioos:station:wmo:42877:1,2022-01-04T18:14:00Z,27.3172,-90.1100,9.8,24.2,11111222
Shell,ioos:station:wmo:42877:1,2022-01-04T18:24:00Z,27.3172,-90.1100,9.8,24.2,11111222
Shell,ioos:station:wmo:42877:1,2022-01-04T18:34:00Z,27.3172,-90.1100,9.8,24.2,11111222
Shell,ioos:station:wmo:42877:1,2022-01-04T18:44:00Z,27.3172,-90.1100,9.7,24.3,11111222
Shell,ioos:station:wmo:42877:1,2022-01-04T18:54:00Z,27.3172,-90.1100,9.8,24.3,11111222
Shell,ioos:station:wmo:42877:1,2022-01-04T19:04:00Z,27.3172,-90.1100,9.8,24.3,11111222
Shell,ioos:station:wmo:42877:1,2022-01-04T19:14:00Z,27.3172,-90.1100,9.8,24.3,11111222
Shell,ioos:station:wmo:42877:1,2022-01-04T19:24:00Z,27.3172,-90.1100,9.8,24.3,11111222
Shell,ioos:station:wmo:42877:1,2022-01-04T19:35:00Z,27.3172,-90.1100,9.9,24.3,11111222
Shell,ioos:station:wmo:42877:1,2022-01-04T19:45:00Z,27.3172,-90.1100,9.9,24.3,11111222
Shell,ioos:station:wmo:42877:1,2022-01-04T19:55:00Z,27.3172,-90.1100,9.8,24.4,11111222
Shell,ioos:station:wmo:42877:1,2022-01-04T20:05:00Z,27.3172,-90.1100,9.8,24.4,11111222
Shell,ioos:station:wmo:42877:1,2022-01-04T20:15:00Z,27.3172,-90.1100,9.9,24.5,11111222
Shell,ioos:station:wmo:42877:1,2022-01-04T20:25:00Z,27.3172,-90.1100,10.0,24.5,11111222
Shell,ioos:station:wmo:42877:1,2022-01-04T20:35:00Z,27.3172,-90.1100,9.9,24.5,11111222
Shell,ioos:station:wmo:42877:1,2022-01-04T20:45:00Z,27.3172,-90.1100,10.0,24.6,11111222
Shell,ioos:station:wmo:42877:1,2022-01-04T20:55:00Z,27.3172,-90.1100,10.0,24.6,11111222
Shell,ioos:station:wmo:42877:1,2022-01-04T21:05:00Z,27.3172,-90.1100,10.0,24.6,11111222
Shell,ioos:station:wmo:42877:1,2022-01-04T21:15:00Z,27.3172,-90.1100,10.1,24.6,11111222
Shell,ioos:station:wmo:42877:1,2022-01-04T21:25:00Z,27.3172,-90.1100,10.0,24.6,11111222
Shell,ioos:station:wmo:42877:1,2022-01-04T21:35:00Z,27.3172,-90.1100,10.0,24.6,11111222
Shell,ioos:station:wmo:42877:1,2022-01-04T21:45:00Z,27.3172,-90.1100,10.1,24.6,11111222
Shell,ioos:station:wmo:42877:1,2022-01-04T21:55:00Z,27.3172,-90.1100,10.0,24.6,11111222
Shell,ioos:station:wmo:42877:1,2022-01-04T22:05:00Z,27.3172,-90.1100,9.8,24.6,11111222
Shell,ioos:station:wmo:42877:1,2022-01-04T22:15:00Z,27.3172,-90.1100,9.8,24.6,11111222
Shell,ioos:station:wmo:42877:1,2022-01-04T22:25:00Z,27.3172,-90.1100,9.6,24.6,11111222
Shell,ioos:station:wmo:42877:1,2022-01-04T22:35:00Z,27.3172,-90.1100,9.7,24.6,11111222
Shell,ioos:station:wmo:42877:1,2022-01-04T22:45:00Z,27.3172,-90.1100,9.5,24.7,11111222
Shell,ioos:station:wmo:42877:1,2022-01-04T22:55:00Z,27.3172,-90.1100,9.7,24.7,11111222
Shell,ioos:station:wmo:42877:1,2022-01-04T23:05:00Z,27.3172,-90.1100,9.7,24.7,11111222
Shell,ioos:station:wmo:42877:1,2022-01-04T23:15:00Z,27.3172,-90.1100,9.6,24.7,11111222
Shell,ioos:station:wmo:42877:1,2022-01-04T23:25:00Z,27.3172,-90.1100,9.7,24.7,11111222
Shell,ioos:station:wmo:42877:1,2022-01-04T23:35:00Z,27.3172,-90.1100,9.8,24.7,11111222
Shell,ioos:station:wmo:42877:1,2022-01-04T23:45:00Z,27.3172,-90.1100,9.8,24.7,11111222
Shell,ioos:station:wmo:42877:1,2022-01-04T23:55:00Z,27.3172,-90.1100,9.8,24.7,11111222
Shell,ioos:station:wmo:42877:1,2022-01-05T00:05:00Z,27.3172,-90.1100,9.8,24.7,11111222
Shell,ioos:station:wmo:42877:1,2022-01-05T00:15:00Z,27.3172,-90.1100,9.8,24.7,11111222
Shell,ioos:station:wmo:42877:1,2022-01-05T00:25:00Z,27.3172,-90.1100,9.8,24.7,11111222
Shell,ioos:station:wmo:42877:1,2022-01-05T00:35:00Z,27.3172,-90.1100,9.8,24.7,11111222
Shell,ioos:station:wmo:42877:1,2022-01-05T00:45:00Z,27.3172,-90.1100,9.8,24.6,11111222
Shell,ioos:station:wmo:42877:1,2022-01-05T00:55:00Z,27.3172,-90.1100,9.8,24.6,11111222
Shell,ioos:station:wmo:42877:1,2022-01-05T01:05:00Z,27.3172,-90.1100,9.8,24.6,11111222
Shell,ioos:station:wmo:42877:1,2022-01-05T01:15:00Z,27.3172,-90.1100,9.8,24.6,11111222
Shell,ioos:station:wmo:42877:1,2022-01-05T01:25:00Z,27.3172,-90.1100,9.8,24.6,11111222
Shell,ioos:station:wmo:42877:1,2022-01-05T01:35:00Z,27.3172,-90.1100,9.8,24.6,11111222
Shell,ioos:station:wmo:42877:1,2022-01-05T01:45:00Z,27.3172,-90.1100,9.9,24.6,11111222
Shell,ioos:station:wmo:42877:1,2022-01-05T01:55:00Z,27.3172,-90.1100,9.9,24.6,11111222
Shell,ioos:station:wmo:42877:1,2022-01-05T02:05:00Z,27.3172,-90.1100,9.9,24.6,11111222
Shell,ioos:station:wmo:42877:1,2022-01-05T02:15:00Z,27.3172,-90.1100,9.9,24.6,11111222
Shell,ioos:station:wmo:42877:1,2022-01-05T02:25:00Z,27.3172,-90.1100,9.9,24.6,11111222
Shell,ioos:station:wmo:42877:1,2022-01-05T02:35:00Z,27.3172,-90.1100,9.9,24.6,11111222
Shell,ioos:station:wmo:42877:1,2022-01-05T02:45:00Z,27.3172,-90.1100,9.9,24.5,11111222
Shell,ioos:station:wmo:42877:1,2022-01-05T02:56:00Z,27.3172,-90.1100,9.8,24.5,11111222
Shell,ioos:station:wmo:42877:1,2022-01-05T03:06:00Z,27.3172,-90.1100,9.7,24.5,11111222
Shell,ioos:station:wmo:42877:1,2022-01-05T03:16:00Z,27.3172,-90.1100,9.8,24.5,11111222
Shell,ioos:station:wmo:42877:1,2022-01-05T03:26:00Z,27.3172,-90.1100,9.9,24.5,11111222
Shell,ioos:station:wmo:42877:1,2022-01-05T03:36:00Z,27.3172,-90.1100,9.9,24.5,11111222
Shell,ioos:station:wmo:42877:1,2022-01-05T03:46:00Z,27.3172,-90.1100,9.9,24.4,11111222
Shell,ioos:station:wmo:42877:1,2022-01-05T03:56:00Z,27.3172,-90.1100,9.8,24.4,11111222
Shell,ioos:station:wmo:42877:1,2022-01-05T04:06:00Z,27.3172,-90.1100,9.8,24.4,11111222
Shell,ioos:station:wmo:42877:1,2022-01-05T04:16:00Z,27.3172,-90.1100,9.7,24.4,11111222
Shell,ioos:station:wmo:42877:1,2022-01-05T04:26:00Z,27.3172,-90.1100,9.8,24.4,11111222
Shell,ioos:station:wmo:42877:1,2022-01-05T04:36:00Z,27.3172,-90.1100,9.7,24.4,11111222
Shell,ioos:station:wmo:42877:1,2022-01-05T04:46:00Z,27.3172,-90.1100,9.7,24.4,11111222
Shell,ioos:station:wmo:42877:1,2022-01-05T04:56:00Z,27.3172,-90.1100,9.7,24.4,11111222
Shell,ioos:station:wmo:42877:1,2022-01-05T05:06:00Z,27.3172,-90.1100,9.7,24.4,11111222
Shell,ioos:station:wmo:42877:1,2022-01-05T05:16:00Z,27.3172,-90.1100,9.7,24.4,11111222
Shell,ioos:station:wmo:42877:1,2022-01-05T05:26:00Z,27.3172,-90.1100,9.7,24.3,11111222
Shell,ioos:station:wmo:42877:1,2022-01-05T05:36:00Z,27.3172,-90.1100,9.7,24.3,11111222
Shell,ioos:station:wmo:42877:1,2022-01-05T05:46:00Z,27.3172,-90.1100,9.7,24.3,11111222
Shell,ioos:station:wmo:42877:1,2022-01-05T05:56:00Z,27.3172,-90.1100,9.7,24.3,11111222
Shell,ioos:station:wmo:42877:1,2022-01-05T06:06:00Z,27.3172,-90.1100,9.7,24.3,11111222
Shell,ioos:station:wmo:42877:1,2022-01-05T06:16:00Z,27.3172,-90.1100,9.7,24.3,11111222
Shell,ioos:station:wmo:42877:1,2022-01-05T06:26:00Z,27.3172,-90.1100,9.7,24.3,11111222
Shell,ioos:station:wmo:42877:1,2022-01-05T06:36:00Z,27.3172,-90.1100,9.7,24.3,11111222
Shell,ioos:station:wmo:42877:1,2022-01-05T06:46:00Z,27.3172,-90.1100,9.7,24.3,11111222
Shell,ioos:station:wmo:42877:1,2022-01-05T06:56:00Z,27.3172,-90.1100,9.7,24.3,11111222
Shell,ioos:station:wmo:42877:1,2022-01-05T07:06:00Z,27.3172,-90.1100,9.7,24.2,11111222
Shell,ioos:station:wmo:42877:1,2022-01-05T07:16:00Z,27.3172,-90.1100,9.7,24.2,11111222
Shell,ioos:station:wmo:42877:1,2022-01-05T07:26:00Z,27.3172,-90.1100,9.7,24.2,11111222
Shell,ioos:station:wmo:42877:1,2022-01-05T07:36:00Z,27.3172,-90.1100,9.5,24.2,11111222
Shell,ioos:station:wmo:42877:1,2022-01-05T07:46:00Z,27.3172,-90.1100,9.5,24.2,11111222
Shell,ioos:station:wmo:42877:1,2022-01-05T07:56:00Z,27.3172,-90.1100,9.5,24.2,11111222
Shell,ioos:station:wmo:42877:1,2022-01-05T08:06:00Z,27.3172,-90.1100,9.5,24.2,11111222
Shell,ioos:station:wmo:42877:1,2022-01-05T08:16:00Z,27.3172,-90.1100,9.5,24.2,11111222
Shell,ioos:station:wmo:42877:1,2022-01-05T08:26:00Z,27.3172,-90.1100,9.5,24.2,11111222
Shell,ioos:station:wmo:42877:1,2022-01-05T08:36:00Z,27.3172,-90.1100,9.5,24.2,11111222
Shell,ioos:station:wmo:42877:1,2022-01-05T08:46:00Z,27.3172,-90.1100,9.5,24.2,11111222
Shell,ioos:station:wmo:42877:1,2022-01-05T08:56:00Z,27.3172,-90.1100,9.5,24.2,11111222
Shell,ioos:station:wmo:42877:1,2022-01-05T09:06:00Z,27.3172,-90.1100,9.5,24.2,11111222
Shell,ioos:station:wmo:42877:1,2022-01-05T09:16:00Z,27.3172,-90.1100,9.5,24.2,11111222
Shell,ioos:station:wmo:42877:1,2022-01-05T09:26:00Z,27.3172,-90.1100,9.5,24.2,11111222
Shell,ioos:station:wmo:42877:1,2022-01-05T09:36:00Z,27.3172,-90.1100,9.5,24.2,11111222
Shell,ioos:station:wmo:42877:1,2022-01-05T09:46:00Z,27.3172,-90.1100,9.5,24.2,11111222
Shell,ioos:station:wmo:42877:1,2022-01-05T09:56:00Z,27.3172,-90.1100,9.5,24.2,11111222
Shell,ioos:station:wmo:42877:1,2022-01-05T10:07:00Z,27.3172,-90.1100,9.5,24.2,11111222
Shell,ioos:station:wmo:42877:1,2022-01-05T10:17:00Z,27.3172,-90.1100,9.5,24.2,11111222
Shell,ioos:station:wmo:42877:1,2022-01-05T10:27:00Z,27.3172,-90.1100,9.5,24.2,11111222
Shell,ioos:station:wmo:42877:1,2022-01-05T10:37:00Z,27.3172,-90.1100,9.5,24.2,11111222
Shell,ioos:station:wmo:42877:1,2022-01-05T10:47:00Z,27.3172,-90.1100,9.5,24.2,11111222
Shell,ioos:station:wmo:42877:1,2022-01-05T10:57:00Z,27.3172,-90.1100,9.5,24.2,11111222
Shell,ioos:station:wmo:42877:1,2022-01-05T11:07:00Z,27.3172,-90.1100,9.5,24.2,11111222
Shell,ioos:station:wmo:42877:1,2022-01-05T11:17:00Z,27.3172,-90.1100,9.5,24.2,11111222
Shell,ioos:station:wmo:42877:1,2022-01-05T11:27:00Z,27.3172,-90.1100,9.5,24.2,11111222
Shell,ioos:station:wmo:42877:1,2022-01-05T11:37:00Z,27.3172,-90.1100,9.5,24.2,11111222
Shell,ioos:station:wmo:42877:1,2022-01-05T11:47:00Z,27.3172,-90.1100,9.5,24.2,11111222
Shell,ioos:station:wmo:42877:1,2022-01-05T11:57:00Z,27.3172,-90.1100,9.5,24.2,11111222
Shell,ioos:station:wmo:42877:1,2022-01-05T12:07:00Z,27.3172,-90.1100,9.5,24.2,11111222
Shell,ioos:station:wmo:42877:1,2022-01-05T12:17:00Z,27.3172,-90.1100,9.5,24.2,11111222
Shell,ioos:station:wmo:42877:1,2022-01-05T12:27:00Z,27.3172,-90.1100,9.5,24.2,11111222
Shell,ioos:station:wmo:42877:1,2022-01-05T12:37:00Z,27.3172,-90.1100,9.5,24.2,11111222
Shell,ioos:station:wmo:42877:1,2022-01-05T12:47:00Z,27.3172,-90.1100,9.5,24.2,11111222
Shell,ioos:station:wmo:42877:1,2022-01-05T12:57:00Z,27.3172,-90.1100,9.5,24.2,11111222
Shell,ioos:station:wmo:42877:1,2022-01-05T13:07:00Z,27.3172,-90.1100,9.5,24.2,11111222
Shell,ioos:station:wmo:42877:1,2022-01-05T13:17:00Z,27.3172,-90.1100,9.5,24.2,11111222
Shell,ioos:station:wmo:42877:1,2022-01-05T13:27:00Z,27.3172,-90.1100,9.6,24.2,11111222
Shell,ioos:station:wmo:42877:1,2022-01-05T13:37:00Z,27.3172,-90.1100,9.7,24.2,11111222
Shell,ioos:station:wmo:42877:1,2022-01-05T13:47:00Z,27.3172,-90.1100,9.7,24.2,11111222
Shell,ioos:station:wmo:42877:1,2022-01-05T13:57:00Z,27.3172,-90.1100,9.7,24.2,11111222
Shell,ioos:station:wmo:42877:1,2022-01-05T14:07:00Z,27.3172,-90.1100,9.6,24.2,11111222
Shell,ioos:station:wmo:42877:1,2022-01-05T14:17:00Z,27.3172,-90.1100,9.7,24.2,11111222
Shell,ioos:station:wmo:42877:1,2022-01-05T14:27:00Z,27.3172,-90.1100,9.7,24.2,11111222
Shell,ioos:station:wmo:42877:1,2022-01-05T14:37:00Z,27.3172,-90.1100,9.8,24.2,11111222
Shell,ioos:station:wmo:42877:1,2022-01-05T14:47:00Z,27.3172,-90.1100,9.8,24.2,11111222
Shell,ioos:station:wmo:42877:1,2022-01-05T14:57:00Z,27.3172,-90.1100,9.7,24.2,11111222
Shell,ioos:station:wmo:42877:1,2022-01-05T15:07:00Z,27.3172,-90.1100,9.6,24.2,11111222
Shell,ioos:station:wmo:42877:1,2022-01-05T15:17:00Z,27.3172,-90.1100,9.8,24.2,11111222
Shell,ioos:station:wmo:42877:1,2022-01-05T15:27:00Z,27.3172,-90.1100,9.8,24.2,11111222
Shell,ioos:station:wmo:42877:1,2022-01-05T15:37:00Z,27.3172,-90.1100,9.8,24.2,11111222
Shell,ioos:station:wmo:42877:1,2022-01-05T15:47:00Z,27.3172,-90.1100,9.8,24.2,11111222
Shell,ioos:station:wmo:42877:1,2022-01-05T15:57:00Z,27.3172,-90.1100,9.8,24.2,11111222
Shell,ioos:station:wmo:42877:1,2022-01-05T16:07:00Z,27.3172,-90.1100,9.8,24.2,11111222
Shell,ioos:station:wmo:42877:1,2022-01-05T16:17:00Z,27.3172,-90.1100,9.9,24.2,11111222
Shell,ioos:station:wmo:42877:1,2022-01-05T16:27:00Z,27.3172,-90.1100,9.9,24.2,11111222
Shell,ioos:station:wmo:42877:1,2022-01-05T16:37:00Z,27.3172,-90.1100,9.9,24.2,11111222
Shell,ioos:station:wmo:42877:1,2022-01-05T16:47:00Z,27.3172,-90.1100,9.9,24.2,11111222
Shell,ioos:station:wmo:42877:1,2022-01-05T16:57:00Z,27.3172,-90.1100,10.0,24.2,11111222
Shell,ioos:station:wmo:42877:1,2022-01-05T17:07:00Z,27.3172,-90.1100,10.0,24.2,11111222
Shell,ioos:station:wmo:42877:1,2022-01-05T17:17:00Z,27.3172,-90.1100,9.8,24.2,11111222
Shell,ioos:station:wmo:42877:1,2022-01-05T17:28:00Z,27.3172,-90.1100,9.8,24.2,11111222
Shell,ioos:station:wmo:42877:1,2022-01-05T17:38:00Z,27.3172,-90.1100,9.8,24.3,11111222
Shell,ioos:station:wmo:42877:1,2022-01-05T17:48:00Z,27.3172,-90.1100,9.8,24.3,11111222
Shell,ioos:station:wmo:42877:1,2022-01-05T17:58:00Z,27.3172,-90.1100,9.8,24.3,11111222
Shell,ioos:station:wmo:42877:1,2022-01-05T18:08:00Z,27.3172,-90.1100,9.8,24.3,11111222
Shell,ioos:station:wmo:42877:1,2022-01-05T18:18:00Z,27.3172,-90.1100,9.8,24.3,11111222
Shell,ioos:station:wmo:42877:1,2022-01-05T18:28:00Z,27.3172,-90.1100,9.8,24.3,11111222
Shell,ioos:station:wmo:42877:1,2022-01-05T18:38:00Z,27.3172,-90.1100,9.9,24.3,11111222
Shell,ioos:station:wmo:42877:1,2022-01-05T18:48:00Z,27.3172,-90.1100,9.8,24.3,11111222
Shell,ioos:station:wmo:42877:1,2022-01-05T18:58:00Z,27.3172,-90.1100,9.8,24.3,11111222
Shell,ioos:station:wmo:42877:1,2022-01-05T19:08:00Z,27.3172,-90.1100,9.9,24.3,11111222
Shell,ioos:station:wmo:42877:1,2022-01-05T19:18:00Z,27.3172,-90.1100,9.9,24.3,11111222
Shell,ioos:station:wmo:42877:1,2022-01-05T19:28:00Z,27.3172,-90.1100,9.9,24.3,11111222
Shell,ioos:station:wmo:42877:1,2022-01-05T19:38:00Z,27.3172,-90.1100,10.0,24.3,11111222
Shell,ioos:station:wmo:42877:1,2022-01-05T19:48:00Z,27.3172,-90.1100,10.0,24.3,11111222
Shell,ioos:station:wmo:42877:1,2022-01-05T19:58:00Z,27.3172,-90.1100,10.1,24.3,11111222
Shell,ioos:station:wmo:42877:1,2022-01-05T20:08:00Z,27.3172,-90.1100,10.1,24.3,11111222
Shell,ioos:station:wmo:42877:1,2022-01-05T20:18:00Z,27.3172,-90.1100,10.1,24.3,11111222
Shell,ioos:station:wmo:42877:1,2022-01-05T20:28:00Z,27.3172,-90.1100,9.9,24.3,11111222
Shell,ioos:station:wmo:42877:1,2022-01-05T20:38:00Z,27.3172,-90.1100,9.8,24.3,11111222
Shell,ioos:station:wmo:42877:1,2022-01-05T20:48:00Z,27.3172,-90.1100,9.8,24.3,11111222
Shell,ioos:station:wmo:42877:1,2022-01-05T20:58:00Z,27.3172,-90.1100,9.6,24.3,11111222
Shell,ioos:station:wmo:42877:1,2022-01-05T21:08:00Z,27.3172,-90.1100,9.7,24.3,11111222
Shell,ioos:station:wmo:42877:1,2022-01-05T21:18:00Z,27.3172,-90.1100,9.7,24.3,11111222
Shell,ioos:station:wmo:42877:1,2022-01-05T21:28:00Z,27.3172,-90.1100,9.7,24.3,11111222
Shell,ioos:station:wmo:42877:1,2022-01-05T21:38:00Z,27.3172,-90.1100,9.7,24.3,11111222
Shell,ioos:station:wmo:42877:1,2022-01-05T21:48:00Z,27.3172,-90.1100,9.8,24.3,11111222
Shell,ioos:station:wmo:42877:1,2022-01-05T21:58:00Z,27.3172,-90.1100,9.8,24.3,11111222
Shell,ioos:station:wmo:42877:1,2022-01-05T22:08:00Z,27.3172,-90.1100,9.7,24.3,11111222
Shell,ioos:station:wmo:42877:1,2022-01-05T22:18:00Z,27.3172,-90.1100,9.7,24.3,11111222
Shell,ioos:station:wmo:42877:1,2022-01-05T22:28:00Z,27.3172,-90.1100,9.7,24.3,11111222
Shell,ioos:station:wmo:42877:1,2022-01-05T22:38:00Z,27.3172,-90.1100,9.6,24.3,11111222
Shell,ioos:station:wmo:42877:1,2022-01-05T22:48:00Z,27.3172,-90.1100,9.6,24.3,11111222
Shell,ioos:station:wmo:42877:1,2022-01-05T22:58:00Z,27.3172,-90.1100,9.7,24.3,11111222
Shell,ioos:station:wmo:42877:1,2022-01-05T23:08:00Z,27.3172,-90.1100,9.7,24.3,11111222
Shell,ioos:station:wmo:42877:1,2022-01-05T23:18:00Z,27.3172,-90.1100,9.7,24.3,11111222
Shell,ioos:station:wmo:42877:1,2022-01-05T23:28:00Z,27.3172,-90.1100,9.6,24.3,11111222
Shell,ioos:station:wmo:42877:1,2022-01-05T23:38:00Z,27.3172,-90.1100,9.6,24.3,11111222
Shell,ioos:station:wmo:42877:1,2022-01-05T23:48:00Z,27.3172,-90.1100,9.6,24.3,11111222
Shell,ioos:station:wmo:42877:1,2022-01-05T23:58:00Z,27.3172,-90.1100,9.6,24.3,11111222
Shell,ioos:station:wmo:42877:1,2022-01-06T00:08:00Z,27.3172,-90.1100,9.6,24.3,11111222
Shell,ioos:station:wmo:42877:1,2022-01-06T00:18:00Z,27.3172,-90.1100,9.6,24.3,11111222
Shell,ioos:station:wmo:42877:1,2022-01-06T00:28:00Z,27.3172,-90.1100,9.6,24.3,11111222
Shell,ioos:station:wmo:42877:1,2022-01-06T00:38:00Z,27.3172,-90.1100,9.6,24.3,11111222
Shell,ioos:station:wmo:42877:1,2022-01-06T00:49:00Z,27.3172,-90.1100,9.6,24.3,11111222
Shell,ioos:station:wmo:42877:1,2022-01-06T00:59:00Z,27.3172,-90.1100,9.6,24.3,11111222
Shell,ioos:station:wmo:42877:1,2022-01-06T01:09:00Z,27.3172,-90.1100,9.6,24.3,11111222
Shell,ioos:station:wmo:42877:1,2022-01-06T01:19:00Z,27.3172,-90.1100,9.6,24.3,11111222
Shell,ioos:station:wmo:42877:1,2022-01-06T01:29:00Z,27.3172,-90.1100,9.6,24.3,11111222
Shell,ioos:station:wmo:42877:1,2022-01-06T01:39:00Z,27.3172,-90.1100,9.6,24.3,11111222
Shell,ioos:station:wmo:42877:1,2022-01-06T01:49:00Z,27.3172,-90.1100,9.6,24.3,11111222
Shell,ioos:station:wmo:42877:1,2022-01-06T01:59:00Z,27.3172,-90.1100,9.6,24.3,11111222
Shell,ioos:station:wmo:42877:1,2022-01-06T02:09:00Z,27.3172,-90.1100,9.6,24.3,11111222
Shell,ioos:station:wmo:42877:1,2022-01-06T02:19:00Z,27.3172,-90.1100,9.6,24.3,11111222
Shell,ioos:station:wmo:42877:1,2022-01-06T02:29:00Z,27.3172,-90.1100,9.6,24.3,11111222
Shell,ioos:station:wmo:42877:1,2022-01-06T02:39:00Z,27.3172,-90.1100,9.5,24.3,11111222
Shell,ioos:station:wmo:42877:1,2022-01-06T02:49:00Z,27.3172,-90.1100,9.5,24.3,11111222
Shell,ioos:station:wmo:42877:1,2022-01-06T02:59:00Z,27.3172,-90.1100,9.6,24.2,11111222
Shell,ioos:station:wmo:42877:1,2022-01-06T03:09:00Z,27.3172,-90.1100,9.5,24.2,11111222
Shell,ioos:station:wmo:42877:1,2022-01-06T03:19:00Z,27.3172,-90.1100,9.4,24.1,11111222
Shell,ioos:station:wmo:42877:1,2022-01-06T03:29:00Z,27.3172,-90.1100,9.5,24.1,11111222
Shell,ioos:station:wmo:42877:1,2022-01-06T03:39:00Z,27.3172,-90.1100,9.5,24.1,11111222
Shell,ioos:station:wmo:42877:1,2022-01-06T03:49:00Z,27.3172,-90.1100,9.5,24.1,11111222
Shell,ioos:station:wmo:42877:1,2022-01-06T03:59:00Z,27.3172,-90.1100,9.6,24.1,11111222
Shell,ioos:station:wmo:42877:1,2022-01-06T04:09:00Z,27.3172,-90.1100,9.7,24.0,11111222
Shell,ioos:station:wmo:42877:1,2022-01-06T04:19:00Z,27.3172,-90.1100,9.7,24.0,11111222
Shell,ioos:station:wmo:42877:1,2022-01-06T04:29:00Z,27.3172,-90.1100,9.6,24.0,11111222
Shell,ioos:station:wmo:42877:1,2022-01-06T04:39:00Z,27.3172,-90.1100,9.6,24.0,11111222
Shell,ioos:station:wmo:42877:1,2022-01-06T04:49:00Z,27.3172,-90.1100,9.5,23.9,11111222
Shell,ioos:station:wmo:42877:1,2022-01-06T04:59:00Z,27.3172,-90.1100,9.5,23.9,11111222
Shell,ioos:station:wmo:42877:1,2022-01-06T05:09:00Z,27.3172,-90.1100,9.7,23.9,11111222
Shell,ioos:station:wmo:42877:1,2022-01-06T05:19:00Z,27.3172,-90.1100,9.8,23.9,11111222
Shell,ioos:station:wmo:42877:1,2022-01-06T05:29:00Z,27.3172,-90.1100,9.8,23.9,11111222
Shell,ioos:station:wmo:42877:1,2022-01-06T05:39:00Z,27.3172,-90.1100,9.7,23.9,11111222
Shell,ioos:station:wmo:42877:1,2022-01-06T05:49:00Z,27.3172,-90.1100,9.8,23.9,11111222
Shell,ioos:station:wmo:42877:1,2022-01-06T05:59:00Z,27.3172,-90.1100,9.8,23.9,11111222
Shell,ioos:station:wmo:42877:1,2022-01-06T06:09:00Z,27.3172,-90.1100,9.8,23.9,11111222
Shell,ioos:station:wmo:42877:1,2022-01-06T06:19:00Z,27.3172,-90.1100,9.8,23.9,11111222
Shell,ioos:station:wmo:42877:1,2022-01-06T06:29:00Z,27.3172,-90.1100,9.8,23.9,11111222
Shell,ioos:station:wmo:42877:1,2022-01-06T06:39:00Z,27.3172,-90.1100,9.8,23.9,11111222
Shell,ioos:station:wmo:42877:1,2022-01-06T06:49:00Z,27.3172,-90.1100,9.8,23.9,11111222
Shell,ioos:station:wmo:42877:1,2022-01-06T06:59:00Z,27.3172,-90.1100,9.8,23.9,11111222
Shell,ioos:station:wmo:42877:1,2022-01-06T07:09:00Z,27.3172,-90.1100,9.8,23.9,11111222
Shell,ioos:station:wmo:42877:1,2022-01-06T07:19:00Z,27.3172,-90.1100,9.6,23.9,11111222
Shell,ioos:station:wmo:42877:1,2022-01-06T07:29:00Z,27.3172,-90.1100,9.6,23.9,11111222
Shell,ioos:station:wmo:42877:1,2022-01-06T07:39:00Z,27.3172,-90.1100,9.6,23.9,11111222
Shell,ioos:station:wmo:42877:1,2022-01-06T07:49:00Z,27.3172,-90.1100,9.6,23.9,11111222
Shell,ioos:station:wmo:42877:1,2022-01-06T07:59:00Z,27.3172,-90.1100,9.6,23.9,11111222
Shell,ioos:station:wmo:42877:1,2022-01-06T08:10:00Z,27.3172,-90.1100,9.6,23.9,11111222
Shell,ioos:station:wmo:42877:1,2022-01-06T08:20:00Z,27.3172,-90.1100,9.7,23.9,11111222
Shell,ioos:station:wmo:42877:1,2022-01-06T08:30:00Z,27.3172,-90.1100,9.7,23.9,11111222
Shell,ioos:station:wmo:42877:1,2022-01-06T08:40:00Z,27.3172,-90.1100,9.6,23.9,11111222
Shell,ioos:station:wmo:42877:1,2022-01-06T08:50:00Z,27.3172,-90.1100,9.6,23.9,11111222
Shell,ioos:station:wmo:42877:1,2022-01-06T09:00:00Z,27.3172,-90.1100,9.6,23.9,11111222
Shell,ioos:station:wmo:42877:1,2022-01-06T09:10:00Z,27.3172,-90.1100,9.9,23.9,11111222
Shell,ioos:station:wmo:42877:1,2022-01-06T09:20:00Z,27.3172,-90.1100,9.9,24.0,11111222
Shell,ioos:station:wmo:42877:1,2022-01-06T09:30:00Z,27.3172,-90.1100,9.9,24.0,11111222
Shell,ioos:station:wmo:42877:1,2022-01-06T09:40:00Z,27.3172,-90.1100,9.8,24.0,11111222
Shell,ioos:station:wmo:42877:1,2022-01-06T09:50:00Z,27.3172,-90.1100,9.9,24.0,11111222
Shell,ioos:station:wmo:42877:1,2022-01-06T10:00:00Z,27.3172,-90.1100,9.9,24.0,11111222
Shell,ioos:station:wmo:42877:1,2022-01-06T10:10:00Z,27.3172,-90.1100,9.9,24.1,11111222
Shell,ioos:station:wmo:42877:1,2022-01-06T10:20:00Z,27.3172,-90.1100,9.9,24.1,11111222
Shell,ioos:station:wmo:42877:1,2022-01-06T10:30:00Z,27.3172,-90.1100,10.0,24.1,11111222
Shell,ioos:station:wmo:42877:1,2022-01-06T10:40:00Z,27.3172,-90.1100,9.9,24.1,11111222
Shell,ioos:station:wmo:42877:1,2022-01-06T10:50:00Z,27.3172,-90.1100,9.9,24.1,11111222
Shell,ioos:station:wmo:42877:1,2022-01-06T11:00:00Z,27.3172,-90.1100,9.9,24.1,11111222
Shell,ioos:station:wmo:42877:1,2022-01-06T11:10:00Z,27.3172,-90.1100,9.9,24.1,11111222
Shell,ioos:station:wmo:42877:1,2022-01-06T11:20:00Z,27.3172,-90.1100,9.7,24.2,11111222
Shell,ioos:station:wmo:42877:1,2022-01-06T11:30:00Z,27.3172,-90.1100,9.7,24.2,11111222
Shell,ioos:station:wmo:42877:1,2022-01-06T11:40:00Z,27.3172,-90.1100,9.7,24.2,11111222
Shell,ioos:station:wmo:42877:1,2022-01-06T11:50:00Z,27.3172,-90.1100,9.7,24.2,11111222
Shell,ioos:station:wmo:42877:1,2022-01-06T12:00:00Z,27.3172,-90.1100,9.7,24.2,11111222